USA 157 (MILSTAR-2 2)

Last updated on Sun Apr 12 2026 00:02:50 GMT+0000 (Coordinated Universal Time)

1 26715U 01009A 26101.43169765 .00000117 00000+0 00000+0 0 9999 2 26715 11.4701 20.1691 0037687 181.2105 3.6158 1.00270617 32276
UTC large
Height (km)
Speed (km/s)
/
Latitude / Longitude
Inclination (degrees)
Orbital Period (minutes)
Azimuth
Elevation
Range (km)
Doppler Factor

Next 0 passes for location: London (51.5072 / 0.1276)

Sorry there are no passes over London.
USA 157 (MILSTAR-2 2)